| time (UTC) | temp F | wind direction | speed MPH | gust MPH | rain 1hr in | rain 24hr in | rain mn in | humidity % | barometer mb |
| 20260510053555 | 51 | 197 | 9.0 | 9.0 | 0.00 | 0.06 | 0.00 | 62 | 1003.5 |
| 20260510052154 | 52 | 193 | 9.0 | 8.0 | 0.00 | 0.06 | 0.00 | 62 | 1003.2 |
| 20260510050752 | 52 | 203 | 8.0 | 11.0 | 0.00 | 0.06 | 0.00 | 62 | 1002.8 |
| 20260510045347 | 52 | 198 | 10.0 | 13.0 | 0.00 | 0.06 | 0.00 | 62 | 1002.3 |
| 20260510042541 | 52 | 217 | 10.0 | 13.0 | 0.00 | 0.06 | 0.00 | 63 | 1001.7 |
| 20260510041137 | 53 | 190 | 7.0 | 12.0 | 0.00 | 0.06 | 0.00 | 66 | 1001.3 |
| 20260510035737 | 53 | 207 | 5.0 | 10.0 | 0.00 | 0.06 | 0.00 | 69 | 1001.0 |
| 20260510034331 | 54 | 172 | 6.0 | 6.0 | 0.00 | 0.06 | 0.00 | 73 | 1000.8 |
| 20260510032929 | 54 | 214 | 3.0 | 4.0 | 0.00 | 0.06 | 0.00 | 76 | 1000.4 |
| 20260510031525 | 54 | 232 | 1.0 | 1.0 | 0.00 | 0.06 | 0.00 | 85 | 1000.2 |
| 20260510030120 | 53 | 255 | 1.0 | 1.0 | 0.00 | 0.06 | 0.00 | 85 | 999.8 |
| 20260510024720 | 53 | 217 | 4.0 | 3.0 | 0.00 | 0.06 | 0.00 | 81 | 999.6 |
| 20260510023314 | 54 | 224 | 6.0 | 8.0 | 0.00 | 0.06 | 0.00 | 74 | 999.5 |
| 20260510021918 | 54 | 184 | 6.0 | 4.0 | 0.00 | 0.06 | 0.00 | 72 | 999.2 |
| 20260510020510 | 54 | 184 | 8.0 | 8.0 | 0.00 | 0.06 | 0.00 | 71 | 999.0 |
| 20260510015107 | 55 | 205 | 6.0 | 8.0 | 0.00 | 0.06 | 0.00 | 71 | 998.7 |
| 20260510013703 | 56 | 228 | 7.0 | 6.0 | 0.00 | 0.06 | 0.00 | 69 | 998.3 |
| 20260510012259 | 56 | 197 | 5.0 | 10.0 | 0.00 | 0.06 | 0.00 | 72 | 998.0 |
| 20260510010856 | 55 | 224 | 8.0 | 7.0 | 0.00 | 0.06 | 0.00 | 74 | 997.8 |
| 20260510005456 | 55 | 197 | 5.0 | 7.0 | 0.00 | 0.06 | 0.00 | 76 | 997.6 |
| 20260510004050 | 55 | 193 | 8.0 | 8.0 | 0.00 | 0.06 | 0.00 | 72 | 997.5 |
| 20260510002650 | 54 | 210 | 7.0 | 10.0 | 0.00 | 0.06 | 0.00 | 74 | 997.4 |
| 20260510001243 | 53 | 218 | 6.0 | 6.0 | 0.00 | 0.06 | 0.00 | 80 | 997.4 |
| 20260509235840 | 53 | 186 | 6.0 | 5.0 | 0.00 | 0.06 | 0.00 | 85 | 997.4 |
| 20260509234437 | 52 | 181 | 5.0 | 5.0 | 0.00 | 0.06 | 0.00 | 95 | 997.3 |
| 20260509233033 | 51 | 204 | 8.0 | 8.0 | 0.00 | 0.06 | 0.00 | 97 | 997.3 |
| 20260509231628 | 51 | 217 | 9.0 | 10.0 | 0.00 | 0.06 | 0.00 | 97 | 997.3 |
| 20260509230225 | 53 | 225 | 6.0 | 6.0 | 0.00 | 0.06 | 0.00 | 93 | 996.9 |
| 20260509224821 | 53 | 180 | 9.0 | 11.0 | 0.00 | 0.06 | 0.00 | 88 | 996.6 |
| 20260509223416 | 53 | 148 | 9.0 | 8.0 | 0.00 | 0.06 | 0.00 | 87 | 996.4 |
| 20260509220610 | 53 | 162 | 6.0 | 7.0 | 0.00 | 0.06 | 0.00 | 88 | 996.0 |
| 20260509215207 | 53 | 172 | 5.0 | 3.0 | 0.00 | 0.06 | 0.00 | 91 | 995.6 |
| 20260509213803 | 53 | 165 | 9.0 | 10.0 | 0.00 | 0.06 | 0.00 | 95 | 995.5 |
| 20260509212359 | 54 | 148 | 6.0 | 4.0 | 0.00 | 0.06 | 0.00 | 96 | 995.1 |
| 20260509210954 | 54 | 187 | 7.0 | 6.0 | 0.00 | 0.06 | 0.00 | 98 | 994.6 |
| 20260509205554 | 54 | 143 | 8.0 | 8.0 | 0.00 | 0.06 | 0.00 | 100 | 994.3 |
| 20260509204152 | 54 | 142 | 5.0 | 3.0 | 0.00 | 0.06 | 0.00 | 100 | 994.2 |
| 20260509202745 | 53 | 176 | 6.0 | 7.0 | 0.00 | 0.06 | 0.00 | 100 | 994.0 |
| 20260509201341 | 52 | 193 | 2.0 | 2.0 | 0.00 | 0.06 | 0.00 | 100 | 993.7 |
| 20260509195937 | 52 | 207 | 4.0 | 2.0 | 0.00 | 0.06 | 0.00 | 100 | 993.4 |
| 20260509194534 | 51 | 183 | 3.0 | 2.0 | 0.00 | 0.06 | 0.00 | 100 | 993.2 |
| 20260509193130 | 50 | 188 | 4.0 | 5.0 | 0.00 | 0.06 | 0.00 | 100 | 992.9 |
| 20260509191727 | 50 | 262 | 0.0 | 2.0 | 0.00 | 0.06 | 0.00 | 100 | 992.2 |
| 20260509190326 | 50 | 217 | 0.0 | 0.0 | 0.00 | 0.06 | 0.00 | 100 | 991.8 |
| 20260509184921 | 51 | 281 | 2.0 | 1.0 | 0.00 | 0.06 | 0.00 | 100 | 991.7 |
| 20260509183517 | 51 | 287 | 1.0 | 1.0 | 0.00 | 0.06 | 0.00 | 100 | 991.6 |
| 20260509182112 | 52 | 285 | 0.0 | 0.0 | 0.00 | 0.06 | 0.00 | 100 | 991.7 |
| 20260509180709 | 53 | 273 | 1.0 | 1.0 | 0.00 | 0.06 | 0.00 | 100 | 991.3 |
| 20260509175307 | 53 | 294 | 0.0 | 0.0 | 0.00 | 0.06 | 0.00 | 100 | 991.2 |
| 20260509173902 | 53 | 294 | 0.0 | 0.0 | 0.00 | 0.06 | 0.00 | 100 | 991.1 |
| 20260509172502 | 53 | 322 | 1.0 | 0.0 | 0.00 | 0.06 | 0.00 | 100 | 990.9 |
| 20260509171058 | 53 | 124 | 0.0 | 0.0 | 0.00 | 0.06 | 0.00 | 100 | 991.0 |
| 20260509165658 | 53 | 222 | 0.0 | 0.0 | 0.00 | 0.06 | 0.00 | 100 | 990.9 |
| 20260509164249 | 53 | 205 | 1.0 | 2.0 | 0.00 | 0.06 | 0.00 | 100 | 990.7 |
| 20260509161443 | 53 | 152 | 2.0 | 4.0 | 0.00 | 0.06 | 0.00 | 100 | 990.6 |
| 20260509160039 | 54 | 208 | 3.0 | 3.0 | 0.00 | 0.06 | 0.00 | 100 | 990.5 |
| 20260509154636 | 54 | 159 | 4.0 | 0.0 | 0.00 | 0.06 | 0.00 | 100 | 990.9 |
| 20260509153232 | 54 | 200 | 5.0 | 2.0 | 0.00 | 0.06 | 0.00 | 100 | 990.7 |
| 20260509151832 | 54 | 146 | 5.0 | 4.0 | 0.00 | 0.06 | 0.00 | 100 | 990.6 |
| 20260509150426 | 54 | 186 | 9.0 | 7.0 | 0.00 | 0.06 | 0.00 | 100 | 990.7 |
| 20260509143618 | 54 | 197 | 6.0 | 6.0 | 0.00 | 0.06 | 0.00 | 66 | 990.5 |
| 20260509142213 | 55 | 277 | 3.0 | 2.0 | 0.00 | 0.06 | 0.00 | 63 | 989.9 |
| 20260509140810 | 54 | 291 | 3.0 | 3.0 | 0.00 | 0.06 | 0.00 | 65 | 990.0 |
| 20260509135406 | 54 | 297 | 4.0 | 5.0 | 0.00 | 0.06 | 0.00 | 66 | 989.9 |
| 20260509134006 | 54 | 284 | 3.0 | 3.0 | 0.00 | 0.06 | 0.00 | 65 | 989.8 |
| 20260509132604 | 55 | 304 | 4.0 | 4.0 | 0.00 | 0.06 | 0.00 | 62 | 989.9 |
| 20260509125754 | 56 | 315 | 4.0 | 3.0 | 0.00 | 0.06 | 0.00 | 60 | 990.4 |
| 20260509124354 | 57 | 319 | 5.0 | 5.0 | 0.00 | 0.06 | 0.00 | 60 | 990.4 |
| 20260509122947 | 58 | 291 | 6.0 | 8.0 | 0.00 | 0.06 | 0.00 | 57 | 990.6 |
| 20260509121547 | 59 | 316 | 8.0 | 5.0 | 0.00 | 0.06 | 0.00 | 54 | 990.7 |
| 20260509114739 | 58 | 345 | 3.0 | 7.0 | 0.00 | 0.21 | 0.06 | 56 | 991.2 |
| 20260509113335 | 57 | 305 | 5.0 | 6.0 | 0.00 | 0.21 | 0.06 | 59 | 991.5 |
| 20260509111932 | 57 | 335 | 6.0 | 4.0 | 0.00 | 0.21 | 0.06 | 58 | 991.7 |
| 20260509110527 | 58 | 304 | 5.0 | 3.0 | 0.00 | 0.21 | 0.06 | 59 | 991.8 |
| 20260509105124 | 58 | 290 | 7.0 | 5.0 | 0.00 | 0.21 | 0.06 | 57 | 992.1 |
| 20260509103720 | 58 | 301 | 5.0 | 6.0 | 0.00 | 0.21 | 0.06 | 60 | 992.1 |
| 20260509102317 | 58 | 318 | 6.0 | 3.0 | 0.00 | 0.21 | 0.06 | 59 | 992.3 |
| 20260509100913 | 58 | 277 | 6.0 | 4.0 | 0.00 | 0.21 | 0.06 | 58 | 992.1 |
| 20260509095513 | 59 | 274 | 6.0 | 6.0 | 0.00 | 0.21 | 0.06 | 58 | 992.3 |
| 20260509094108 | 58 | 293 | 6.0 | 7.0 | 0.00 | 0.21 | 0.06 | 58 | 992.2 |
| 20260509092704 | 58 | 290 | 9.0 | 8.0 | 0.00 | 0.21 | 0.06 | 58 | 992.0 |
| 20260509091300 | 57 | 295 | 8.0 | 8.0 | 0.00 | 0.21 | 0.06 | 62 | 992.0 |
| 20260509085857 | 56 | 260 | 6.0 | 4.0 | 0.00 | 0.21 | 0.06 | 68 | 992.1 |
| 20260509081651 | 51 | 305 | 4.0 | 5.0 | 0.00 | 0.21 | 0.06 | 100 | 991.8 |
| 20260509080250 | 52 | 339 | 4.0 | 4.0 | 0.00 | 0.21 | 0.06 | 100 | 991.9 |
| 20260509074842 | 52 | 222 | 2.0 | 0.0 | 0.00 | 0.21 | 0.06 | 100 | 991.7 |
| 20260509073439 | 53 | 225 | 1.0 | 0.0 | 0.00 | 0.21 | 0.06 | 100 | 991.9 |
| 20260509072035 | 53 | 239 | 5.0 | 3.0 | 0.00 | 0.21 | 0.06 | 100 | 992.2 |
| 20260509070632 | 53 | 238 | 3.0 | 2.0 | 0.00 | 0.21 | 0.06 | 100 | 992.0 |
| 20260509065227 | 53 | 94 | 4.0 | 2.0 | 0.00 | 0.21 | 0.06 | 100 | 991.8 |
| 20260509063825 | 53 | 257 | 1.0 | 2.0 | 0.00 | 0.21 | 0.06 | 100 | 991.7 |
| 20260509062424 | 54 | 302 | 0.0 | 0.0 | 0.00 | 0.21 | 0.06 | 100 | 991.5 |
| 20260509061017 | 54 | 346 | 1.0 | 0.0 | 0.00 | 0.21 | 0.06 | 100 | 991.4 |
| 20260509055616 | 55 | 34 | 0.0 | 0.0 | 0.00 | 0.21 | 0.06 | 100 | 991.3 |